Wind_Speed
3 2 2 2 3 4 6 4 4 6 6 7 7 7 7 7 7 6 6 6 6 6 7 6 6 5 6 5 5 5 5 6 6 7 7 8 8 9 9 9 9 9 9 9 9 9 8 8 7
5 3 2 2 3 4 5 5 5 7 9 9 9 8 7 7 7 6 6 6 6 6 6 6 6 5 6 6 6 6 6 6 7 7 8 8 9 9 9 9 9 9 9 9 9 9 8 8 7
7 5 3 2 2 4 5 5 6 8 10 12 12 11 10 8 8 8 7 7 6 6 6 5 5 5 6 6 6 6 7 7 7 8 8 9 9 10 10 10 9 10 10 10 9 9 9 9 8
9 8 5 4 4 4 4 6 8 10 11 12 13 13 12 10 9 9 9 8 6 6 6 6 6 6 7 7 7 8 8 8 9 9 10 10 11 12 11 11 11 11 11 11 10 10 10 10 9
12 10 7 7 7 6 5 6 9 13 14 14 15 16 14 12 11 10 9 9 7 6 7 7 7 8 8 8 8 8 9 9 10 11 11 12 12 13 13 12 12 12 12 12 12 12 12 12 11
15 12 9 7 8 7 5 6 10 14 17 18 18 17 15 13 11 10 10 9 9 8 8 8 8 9 10 9 9 9 10 10 11 12 12 13 13 13 13 14 14 13 13 13 13 14 14 14 14
17 13 9 8 7 5 5 8 11 16 18 20 20 19 17 14 11 10 10 10 10 10 10 10 10 10 11 11 11 11 12 12 13 13 13 13 14 14 14 15 15 15 15 15 15 15 15 15 15
19 16 10 10 11 9 7 10 14 18 20 23 23 20 18 16 13 11 10 11 11 11 11 11 12 12 11 11 12 12 13 14 15 15 15 15 15 16 16 17 17 17 16 16 16 16 16 17 17
22 18 14 14 15 15 13 12 16 20 23 24 24 22 20 19 16 13 12 13 13 13 13 13 13 13 12 13 13 14 15 16 16 17 17 17 18 18 18 18 19 19 19 18 18 18 18 18 19
24 19 17 19 19 19 17 16 17 21 24 25 25 25 24 22 19 18 15 15 15 15 16 14 13 14 15 16 16 17 18 18 19 19 20 20 21 21 21 21 21 21 21 21 21 21 20 20 21
25 21 21 22 22 22 20 19 21 23 25 27 27 26 26 25 23 20 20 19 19 17 16 15 16 16 17 19 19 20 20 21 22 22 23 23 23 24 24 24 24 24 24 23 23 22 23 22 23
26 24 23 23 23 24 23 22 23 25 27 28 29 29 28 28 26 25 23 21 20 19 18 19 19 19 20 22 22 23 23 23 24 25 25 26 27 26 27 27 27 27 27 26 25 25 25 25 25
24 23 23 24 24 25 25 24 25 26 28 29 30 30 29 29 27 26 23 23 22 20 21 23 22 23 24 24 26 25 26 26 27 28 28 28 28 29 29 29 29 30 29 28 26 26 26 27 26
20 20 21 22 22 24 25 26 27 27 28 29 29 29 28 27 26 25 25 25 24 23 25 24 23 25 26 27 28 28 28 28 29 29 30 30 31 31 31 31 30 30 30 29 28 27 27 27 28
17 18 18 19 20 21 23 25 27 27 27 28 27 27 27 25 25 25 25 26 25 26 25 26 27 27 27 29 29 29 30 31 31 31 31 32 32 33 33 33 32 31 30 30 30 29 29 30 29
14 14 15 16 18 19 23 25 25 25 24 24 24 23 24 24 24 25 25 25 25 25 26 27 27 28 29 30 31 31 32 33 33 33 34 34 34 35 34 33 31 31 31 31 31 31 30 30 30
8 10 14 14 16 18 20 22 22 21 21 21 21 22 23 23 23 24 24 24 25 25 26 27 28 28 30 31 31 32 33 34 34 35 35 35 35 35 34 33 32 32 32 32 32 32 31 31 30
5 6 11 12 13 16 18 19 19 19 20 20 21 20 21 22 23 23 23 23 23 24 26 27 28 29 30 31 32 33 34 35 36 36 37 37 37 37 36 35 35 35 34 33 33 32 32 32 31
5 4 6 10 12 13 16 20 21 21 19 19 19 20 19 19 19 19 20 21 22 23 25 26 28 29 31 32 33 34 35 37 37 37 38 38 38 38 38 37 37 37 36 35 34 33 33 32 33
5 4 6 8 11 13 16 19 20 17 16 16 17 16 15 14 14 15 18 19 21 23 25 26 28 29 31 33 34 35 36 37 38 39 39 39 39 39 39 39 38 38 37 36 36 34 34 34 33
6 6 5 6 12 15 15 15 15 15 13 12 12 11 9 10 12 13 16 18 20 21 23 25 28 30 32 34 35 36 37 38 39 40 40 41 41 40 39 39 39 38 37 37 37 36 35 33 33
7 7 7 8 10 10 11 13 13 11 7 4 4 4 5 7 10 12 14 16 18 20 22 24 27 29 32 34 36 37 38 39 40 40 41 41 41 40 40 40 39 38 37 37 37 37 36 35 34
8 11 10 9 9 10 10 11 9 7 4 1 0 2 5 7 9 11 13 16 18 20 22 24 27 29 31 33 35 36 37 38 39 40 41 41 41 40 40 40 39 38 38 37 37 37 36 35 35
9 10 10 10 10 10 8 5 3 2 4 4 2 4 6 9 11 13 15 17 19 22 24 27 28 30 32 34 35 36 37 38 39 39 40 40 39 39 39 39 39 38 38 38 38 38 37 36 36
9 10 10 10 10 11 9 5 5 5 5 4 4 7 10 12 15 17 19 21 24 26 29 31 33 34 36 37 38 38 38 39 39 39 39 39 39 39 39 39 38 38 38 38 38 38 38 38 37
8 9 10 10 11 11 10 7 7 6 7 7 8 10 13 16 18 20 23 26 28 31 33 35 37 39 40 41 41 40 40 40 40 39 39 39 39 39 39 39 39 39 38 38 38 38 38 39 39
8 9 10 10 10 10 9 9 11 11 11 12 13 16 18 20 22 24 27 30 32 34 37 39 41 42 43 42 42 41 41 40 40 39 39 40 40 40 40 41 41 41 41 40 40 40 40 40 40
10 10 9 9 10 10 9 10 14 16 17 17 19 21 23 24 26 28 30 33 35 38 40 42 43 44 44 43 42 42 41 40 40 40 40 40 41 41 42 43 43 43 43 43 42 42 42 42 42
9 9 9 10 11 12 14 15 17 18 20 21 23 24 26 27 29 31 33 35 38 40 42 43 44 44 44 43 43 42 41 41 41 40 41 41 42 42 43 43 44 44 45 45 45 44 44 44 44
8 10 11 12 13 15 17 19 19 21 23 24 25 27 28 29 31 33 35 37 39 41 42 43 44 44 43 43 42 41 41 41 41 41 42 43 43 43 44 44 45 45 45 46 47 47 47 46 46
Wind_Direction
1 20 38 29 17 358 342 359 13 7 1 358 350 343 346 351 351 343 340 338 346 352 349 344 342 344 341 338 341 347 351 354 356 355 354 351 350 348 347 348 348 348 348 347 346 346 347 352 358
334 334 336 355 349 346 357 3 345 335 344 340 335 334 342 341 333 331 332 331 343 348 344 340 339 339 337 333 332 336 341 342 343 342 339 336 335 334 333 332 332 332 331 332 332 332 331 334 340
317 311 306 303 312 345 353 344 352 339 333 325 322 323 328 324 317 320 322 328 338 339 336 333 328 325 322 323 325 328 329 329 328 326 323 321 321 319 319 319 318 318 317 315 316 316 317 318 320
308 303 289 263 264 312 349 344 333 321 318 315 312 311 314 316 314 317 317 319 324 325 322 317 312 308 308 309 312 314 315 317 318 316 314 313 314 312 309 309 309 308 305 303 303 302 303 304 304
299 296 283 260 259 285 313 323 316 307 305 303 303 306 308 310 310 308 307 306 304 303 305 304 301 301 303 302 302 304 306 308 310 311 309 309 309 307 304 303 303 302 299 295 293 292 291 291 292
291 289 279 259 258 277 290 302 296 293 295 295 296 300 304 305 304 301 300 299 298 294 297 296 295 295 298 298 298 301 302 304 306 307 306 304 304 304 301 300 300 299 295 289 285 284 283 282 282
284 281 268 241 232 245 276 278 283 287 289 291 293 297 301 298 295 293 294 291 292 292 294 292 293 296 298 300 300 302 302 302 302 302 302 301 300 298 297 296 295 294 292 288 282 278 277 277 276
278 273 251 225 210 209 221 254 272 279 283 286 290 295 296 293 286 283 280 286 286 285 289 293 295 295 298 302 304 304 304 303 303 302 301 300 300 298 298 297 293 291 290 287 282 276 273 272 271
273 264 240 220 213 216 223 242 261 270 275 280 286 290 292 289 281 285 280 282 281 281 286 289 295 294 296 299 302 304 305 306 305 303 302 301 300 298 297 296 295 292 288 284 279 277 272 269 268
266 256 234 221 219 221 228 238 253 263 269 275 281 285 289 287 283 284 284 278 278 282 285 283 290 292 297 299 300 301 303 302 304 304 303 301 299 298 296 295 294 293 291 286 280 275 271 269 266
258 247 233 223 222 225 230 237 248 257 266 271 278 283 285 285 284 283 283 280 279 279 281 283 286 289 294 296 297 297 298 299 299 300 300 298 298 297 296 293 291 290 288 287 282 277 272 270 268
252 242 233 225 224 228 231 239 247 254 262 268 274 278 282 285 284 283 285 285 281 279 286 285 286 288 289 289 292 291 292 294 296 297 298 297 294 293 294 291 288 286 283 283 281 278 276 273 270
248 240 231 224 225 230 234 241 247 253 259 265 270 275 279 284 286 287 286 285 283 285 286 285 287 289 289 290 290 290 287 289 291 292 293 293 293 293 293 289 284 281 278 278 277 275 276 275 272
242 236 229 223 225 230 234 242 250 254 261 266 269 273 275 278 281 285 287 289 288 286 287 289 291 291 291 292 292 293 293 292 291 290 292 291 290 290 291 289 287 283 276 274 274 274 276 274 272
233 227 223 220 221 227 237 243 249 254 261 265 267 270 274 277 281 284 286 287 288 288 290 292 295 295 296 295 296 296 296 295 293 292 293 292 291 290 292 292 289 285 279 274 273 273 274 273 271
222 215 211 214 218 225 234 242 246 252 258 263 267 271 276 280 284 285 286 287 288 289 290 293 294 294 294 295 295 295 295 294 293 293 292 292 291 290 290 290 287 285 280 276 274 272 272 273 270
208 210 202 210 220 225 235 244 248 251 258 262 264 269 276 281 284 286 287 287 287 288 290 292 293 293 293 293 294 293 293 293 293 293 292 293 292 291 291 289 287 287 283 280 276 272 271 270 268
217 216 206 214 227 231 241 251 254 253 259 264 266 270 272 276 281 284 286 288 289 291 292 293 294 294 294 295 295 294 294 294 295 293 292 292 292 291 289 288 286 286 283 281 276 271 270 268 266
274 271 243 231 234 235 244 252 256 261 259 259 261 266 268 271 278 283 286 289 292 294 295 296 296 297 297 297 296 295 294 293 293 292 291 290 290 289 288 287 285 284 282 279 275 272 271 270 266
311 314 295 261 254 254 251 257 259 263 263 260 259 264 262 269 278 285 289 292 294 295 297 298 298 299 299 298 297 296 294 293 292 291 290 289 288 287 287 285 283 282 280 277 275 272 269 268 265
315 318 325 294 276 269 262 265 268 279 268 258 262 262 262 272 283 290 294 296 298 299 300 300 301 300 299 298 297 296 295 293 292 291 291 290 288 287 285 283 282 280 279 276 273 271 269 266 263
349 345 345 326 314 298 291 296 301 289 273 253 239 260 277 281 289 296 298 299 301 302 302 302 302 301 301 300 298 297 296 295 294 292 291 290 289 287 285 282 280 279 276 274 272 270 268 265 262
349 356 355 340 332 319 306 305 305 301 303 337 338 304 308 310 311 310 308 307 307 306 305 305 304 303 302 301 300 299 297 296 295 293 292 290 289 287 284 282 279 277 274 272 270 269 266 264 260
352 359 353 349 339 335 330 322 3 17 39 48 24 337 325 324 325 321 318 316 314 312 311 310 309 309 308 306 304 302 300 298 296 295 293 291 289 287 285 282 280 277 274 271 268 266 264 261 259
356 354 351 353 352 357 4 38 51 54 41 22 0 340 334 333 331 327 326 324 322 319 318 317 316 315 313 311 308 306 303 301 299 297 295 293 291 289 287 284 281 279 276 273 268 264 261 259 257
1 351 352 354 350 355 9 28 21 12 9 359 349 344 338 337 335 332 330 327 324 322 321 321 320 318 316 314 312 310 307 304 302 300 297 295 292 289 287 285 283 280 277 274 270 267 262 258 256
354 351 352 352 349 351 357 359 1 0 360 356 351 346 343 340 337 333 330 328 326 324 323 322 320 319 318 316 314 312 309 306 304 301 298 296 293 291 288 286 283 281 279 275 271 268 265 261 256
343 347 348 349 346 341 340 341 346 357 357 351 348 345 342 338 334 331 329 327 326 324 323 321 321 320 319 317 315 313 310 308 305 302 300 297 295 292 289 286 283 281 279 276 272 268 265 262 258
327 334 348 348 341 336 333 338 347 351 352 348 345 341 337 333 331 329 327 326 325 324 323 322 321 320 318 317 315 313 311 309 307 305 302 299 296 293 290 287 284 282 279 276 273 269 265 262 258
326 335 341 347 343 337 333 338 345 347 347 344 340 335 332 330 328 327 325 325 324 323 322 322 321 321 319 318 316 314 312 311 308 306 304 301 298 295 291 288 285 282 280 277 274 271 267 262 258
Height
5933 5932 5932 5932 5932 5931 5930 5930 5928 5928 5928 5928 5929 5929 5928 5928 5928 5929 5926 5924 5923 5922 5922 5921 5921 5921 5920 5920 5919 5919 5918 5917 5916 5916 5915 5914 5913 5912 5911 5910 5909 5908 5907 5906 5905 5904 5903 5903 5902
5933 5932 5932 5931 5931 5930 5930 5929 5928 5926 5926 5926 5927 5928 5927 5927 5926 5925 5924 5923 5922 5922 5921 5921 5921 5921 5920 5920 5919 5918 5918 5917 5916 5915 5914 5914 5913 5912 5911 5910 5909 5908 5907 5906 5905 5904 5903 5902 5902
5932 5930 5931 5930 5929 5929 5928 5927 5926 5925 5925 5925 5925 5926 5926 5926 5924 5923 5923 5922 5921 5921 5921 5921 5920 5920 5920 5919 5918 5918 5917 5916 5915 5914 5913 5913 5912 5911 5910 5909 5908 5907 5906 5904 5904 5903 5902 5901 5901
5930 5930 5929 5929 5927 5926 5925 5925 5924 5924 5923 5924 5924 5924 5924 5924 5922 5922 5921 5920 5920 5920 5920 5920 5919 5919 5918 5918 5917 5917 5916 5915 5914 5913 5912 5911 5910 5909 5908 5907 5906 5905 5904 5903 5902 5901 5900 5900 5900
5928 5928 5928 5926 5925 5924 5922 5922 5922 5921 5921 5922 5922 5922 5922 5923 5921 5920 5919 5919 5919 5919 5919 5918 5918 5917 5917 5916 5915 5915 5914 5913 5912 5911 5910 5909 5908 5907 5906 5905 5904 5903 5902 5901 5900 5899 5898 5898 5898
5926 5926 5926 5925 5924 5922 5919 5919 5920 5919 5919 5920 5920 5920 5920 5921 5920 5918 5918 5917 5917 5917 5917 5917 5916 5915 5915 5914 5913 5912 5912 5911 5910 5909 5908 5906 5905 5904 5903 5902 5901 5900 5899 5898 5897 5896 5896 5895 5895
5923 5923 5923 5923 5921 5919 5917 5916 5917 5916 5917 5917 5917 5918 5918 5917 5917 5917 5916 5915 5915 5915 5915 5914 5914 5913 5912 5912 5911 5910 5909 5908 5907 5905 5904 5903 5902 5901 5900 5898 5897 5896 5895 5894 5893 5893 5892 5892 5892
5919 5920 5920 5919 5917 5915 5914 5913 5913 5913 5913 5914 5914 5915 5915 5915 5914 5914 5914 5913 5913 5913 5912 5912 5911 5910 5909 5909 5908 5907 5906 5905 5903 5902 5901 5900 5898 5897 5896 5895 5893 5892 5891 5890 5890 5889 5888 5888 5888
5913 5916 5916 5915 5913 5911 5910 5909 5910 5910 5910 5910 5911 5912 5912 5911 5910 5911 5911 5911 5910 5910 5909 5909 5908 5907 5906 5905 5904 5903 5902 5901 5900 5898 5897 5895 5894 5893 5891 5890 5889 5888 5887 5886 5885 5885 5884 5884 5883
5907 5910 5911 5910 5909 5907 5906 5906 5907 5906 5907 5907 5907 5907 5907 5907 5906 5907 5907 5908 5907 5907 5906 5905 5904 5903 5902 5901 5900 5899 5898 5897 5895 5894 5892 5891 5889 5888 5887 5885 5884 5882 5881 5881 5880 5879 5879 5879 5878
5900 5903 5904 5904 5904 5903 5902 5903 5903 5903 5903 5903 5903 5903 5903 5902 5902 5902 5903 5903 5903 5902 5901 5900 5899 5898 5897 5896 5895 5894 5893 5892 5890 5889 5887 5886 5884 5883 5881 5880 5878 5877 5875 5875 5874 5874 5873 5873 5872
5894 5896 5897 5899 5898 5898 5898 5899 5899 5899 5900 5900 5899 5898 5898 5898 5896 5896 5897 5897 5896 5896 5897 5896 5894 5894 5893 5891 5890 5888 5887 5886 5885 5883 5881 5880 5878 5877 5875 5874 5872 5870 5869 5868 5867 5867 5866 5866 5865
5887 5889 5890 5891 5892 5892 5893 5894 5895 5895 5895 5895 5895 5895 5895 5894 5894 5892 5891 5891 5891 5890 5891 5891 5890 5888 5887 5885 5884 5882 5881 5880 5879 5877 5875 5873 5871 5870 5868 5866 5865 5863 5862 5862 5861 5860 5859 5859 5858
5881 5882 5884 5886 5887 5887 5889 5889 5890 5891 5891 5891 5891 5891 5891 5890 5889 5888 5888 5887 5885 5884 5884 5884 5884 5883 5881 5879 5878 5876 5875 5873 5871 5869 5868 5866 5864 5862 5860 5858 5857 5855 5855 5854 5853 5853 5852 5851 5851
5876 5878 5880 5881 5882 5883 5884 5885 5885 5886 5886 5886 5886 5886 5886 5885 5885 5884 5883 5882 5881 5880 5879 5878 5877 5876 5874 5873 5871 5869 5867 5865 5863 5862 5860 5858 5856 5854 5852 5850 5849 5847 5846 5846 5845 5845 5844 5844 5843
5873 5874 5875 5876 5877 5878 5881 5880 5880 5881 5882 5882 5882 5882 5881 5881 5880 5880 5879 5877 5876 5876 5875 5874 5872 5871 5869 5867 5865 5862 5860 5858 5856 5853 5852 5850 5848 5846 5844 5843 5841 5839 5837 5836 5836 5836 5836 5836 5836
5871 5871 5872 5873 5874 5874 5875 5875 5876 5877 5879 5879 5878 5878 5878 5877 5876 5875 5874 5873 5872 5871 5870 5868 5867 5865 5863 5860 5858 5855 5853 5850 5847 5845 5844 5842 5840 5838 5836 5834 5833 5831 5830 5828 5827 5827 5828 5828 5828
5869 5869 5869 5870 5870 5871 5871 5872 5872 5873 5875 5875 5875 5875 5874 5873 5872 5871 5869 5868 5867 5866 5864 5862 5860 5858 5856 5854 5851 5848 5845 5843 5840 5838 5836 5834 5832 5829 5828 5826 5824 5822 5821 5820 5819 5819 5819 5819 5819
5867 5867 5867 5867 5867 5868 5868 5867 5868 5868 5869 5870 5871 5871 5871 5870 5869 5867 5866 5864 5862 5861 5859 5856 5854 5852 5849 5847 5844 5841 5838 5835 5833 5830 5828 5825 5823 5820 5818 5817 5815 5813 5812 5811 5810 5810 5810 5810 5810
5866 5866 5865 5864 5865 5865 5865 5864 5864 5864 5865 5865 5866 5867 5866 5867 5866 5864 5863 5861 5859 5856 5854 5851 5848 5846 5843 5840 5837 5833 5830 5827 5824 5821 5819 5816 5814 5811 5809 5807 5805 5804 5802 5801 5801 5801 5801 5801 5801
5865 5866 5865 5864 5863 5863 5863 5862 5861 5861 5860 5861 5862 5864 5863 5864 5863 5861 5860 5858 5855 5853 5850 5847 5843 5840 5836 5833 5829 5825 5821 5818 5815 5812 5808 5806 5803 5801 5799 5797 5795 5794 5793 5791 5791 5791 5791 5791 5792
5865 5864 5863 5862 5861 5860 5861 5861 5860 5858 5859 5859 5859 5861 5861 5861 5860 5858 5856 5854 5852 5849 5846 5842 5838 5834 5830 5825 5821 5817 5813 5809 5805 5801 5798 5795 5792 5789 5787 5785 5784 5783 5782 5781 5781 5780 5781 5782 5783
5864 5862 5861 5861 5860 5860 5859 5860 5859 5857 5859 5859 5859 5859 5859 5858 5857 5855 5853 5850 5847 5844 5841 5837 5833 5828 5823 5818 5813 5808 5804 5799 5795 5791 5787 5784 5781 5778 5775 5774 5773 5772 5771 5771 5770 5770 5771 5772 5773
5864 5863 5862 5861 5861 5860 5858 5858 5858 5858 5858 5858 5858 5857 5856 5854 5853 5851 5848 5845 5842 5838 5835 5830 5826 5820 5815 5810 5805 5799 5794 5789 5785 5780 5776 5772 5769 5766 5764 5762 5761 5760 5760 5759 5759 5759 5760 5761 5763
5864 5864 5863 5862 5860 5858 5857 5856 5858 5857 5857 5856 5855 5854 5852 5850 5848 5846 5842 5839 5835 5831 5826 5822 5816 5811 5806 5800 5795 5789 5784 5779 5774 5769 5765 5761 5758 5755 5752 5750 5749 5748 5747 5747 5747 5748 5748 5749 5751
5863 5863 5862 5861 5858 5857 5857 5856 5857 5856 5855 5854 5852 5851 5848 5846 5843 5840 5836 5833 5828 5823 5818 5813 5807 5802 5796 5790 5784 5778 5773 5768 5763 5758 5754 5750 5747 5744 5741 5739 5737 5736 5735 5735 5735 5735 5736 5738 5739
5863 5862 5861 5859 5857 5856 5855 5855 5854 5853 5852 5850 5848 5846 5843 5840 5837 5834 5830 5826 5821 5816 5810 5805 5799 5793 5786 5780 5774 5768 5762 5757 5752 5748 5743 5739 5735 5732 5729 5727 5725 5723 5722 5722 5722 5722 5723 5725 5727
5863 5861 5860 5858 5856 5854 5853 5852 5852 5850 5848 5846 5843 5841 5838 5835 5832 5829 5824 5820 5815 5809 5803 5797 5790 5783 5777 5770 5764 5758 5752 5747 5742 5737 5732 5728 5724 5720 5717 5714 5711 5709 5708 5707 5707 5708 5709 5711 5713
5862 5861 5858 5856 5855 5853 5850 5852 5849 5847 5845 5842 5839 5837 5834 5831 5827 5823 5819 5814 5808 5802 5796 5789 5782 5775 5768 5762 5755 5749 5742 5737 5731 5726 5721 5716 5712 5708 5704 5700 5698 5695 5694 5692 5692 5693 5694 5696 5698
5860 5858 5856 5855 5853 5851 5848 5850 5845 5843 5840 5838 5836 5833 5830 5827 5823 5818 5813 5808 5802 5796 5789 5782 5774 5767 5760 5753 5746 5739 5733 5726 5720 5715 5709 5704 5699 5694 5690 5686 5683 5681 5678 5677 5676 5676 5677 5679 5682